DW5852 Weather Reports


Display with metric or nautical units.
time (UTC)temp
F
wind
direction
speed
MPH
gust
MPH
rain 1hr
in
rain 24hr
in
rain mn
in
humidity
%
barometer
mb
20260901133235 56 56 0.0 0.0 0.01 0.10 0.00 96 1032.1
20260901132735 56 56 0.0 0.0 0.01 0.10 0.00 96 1032.1
20260901132235 56 112 0.0 0.0 0.01 0.10 0.00 96 1032.1
20260901131735 56 71 0.0 0.0 0.01 0.10 0.00 96 1032.1
20260901131235 56 71 0.0 0.0 0.01 0.10 0.00 96 1032.0
20260901130735 56 106 0.0 0.0 0.01 0.10 0.00 96 1031.9
20260901130232 56 278 0.0 0.0 0.01 0.10 0.00 96 1032.0
20260901125735 56 278 0.0 0.0 0.01 0.10 0.00 97 1032.0
20260901125232 56 18 0.0 0.0 0.01 0.10 0.00 97 1032.0
20260901124732 55 18 0.0 0.0 0.02 0.10 0.00 97 1032.0
20260901124235 55 18 0.0 0.0 0.02 0.10 0.00 97 1032.0
20260901123735 55 250 0.0 0.0 0.02 0.10 0.00 97 1032.2
20260901123235 55 250 0.0 0.0 0.01 0.09 0.00 97 1032.2
20260901122735 55 339 0.0 0.0 0.01 0.09 0.00 97 1032.2
20260901122235 55 339 0.0 0.0 0.01 0.09 0.00 97 1032.1
20260901121732 55 339 0.0 0.0 0.01 0.09 0.00 97 1032.2
20260901121235 55 339 0.0 0.0 0.01 0.09 0.00 97 1032.4
20260901120735 55 82 0.0 0.0 0.01 0.09 0.00 97 1032.4
20260901120235 55 90 0.0 0.0 0.02 0.09 0.00 96 1032.6
20260901115735 55 90 0.0 0.0 0.02 0.09 0.00 96 1032.7
20260901115232 55 90 0.0 0.0 0.02 0.09 0.00 96 1032.8
20260901114732 55 91 0.0 0.0 0.01 0.09 0.00 96 1032.9
20260901114232 55 91 0.0 0.0 0.01 0.09 0.00 96 1032.9
20260901113735 55 90 0.0 0.0 0.01 0.09 0.00 96 1032.9
20260901113232 55 90 0.0 0.0 0.01 0.09 0.00 96 1032.8
20260901112735 56 91 0.0 0.0 0.01 0.09 0.00 96 1032.9
20260901112235 56 90 0.0 0.0 0.01 0.09 0.00 96 1032.9
20260901111732 56 91 0.0 0.0 0.01 0.09 0.00 96 1033.0
20260901111235 56 107 0.0 0.0 0.01 0.09 0.00 95 1033.0
20260901110735 57 107 0.0 0.0 0.01 0.09 0.00 96 1033.0
20260901110232 57 110 0.0 0.0 0.00 0.09 0.00 96 1033.1
20260901105732 57 110 0.0 0.0 0.00 0.09 0.00 96 1033.1
20260901105232 57 128 0.0 0.0 0.00 0.09 0.00 96 1033.1
20260901104735 57 139 0.0 0.0 0.00 0.09 0.00 96 1033.1
20260901104232 57 139 0.0 0.0 0.01 0.09 0.00 96 1033.0
20260901103735 57 139 0.0 0.0 0.01 0.09 0.00 96 1033.1
20260901103232 57 139 0.0 0.0 0.01 0.09 0.00 96 1033.2
20260901102732 57 139 0.0 0.0 0.01 0.09 0.00 95 1033.3
20260901102232 57 139 0.0 0.0 0.01 0.09 0.00 95 1033.3
20260901101735 57 139 0.0 0.0 0.01 0.09 0.00 95 1033.5
20260901101232 58 139 0.0 0.0 0.01 0.09 0.00 95 1033.8
20260901100735 58 139 0.0 0.0 0.01 0.09 0.00 94 1033.8
20260901100235 58 139 0.0 0.0 0.01 0.09 0.00 94 1034.0
20260901095735 58 139 0.0 0.0 0.01 0.09 0.00 94 1034.2
20260901095232 58 139 0.0 0.0 0.01 0.09 0.00 94 1034.3
20260901094735 58 139 0.0 0.0 0.01 0.09 0.00 94 1034.4
20260901094232 58 139 0.0 0.0 0.00 0.08 0.00 94 1034.5
20260901093735 58 139 0.0 0.0 0.00 0.08 0.00 94 1034.6
20260901093235 58 139 0.0 0.0 0.00 0.08 0.00 93 1034.8
20260901092732 58 145 0.0 0.0 0.00 0.08 0.00 93 1034.9
20260901092232 58 139 0.0 0.0 0.00 0.08 0.00 92 1034.9
20260901091735 58 160 0.0 0.0 0.00 0.08 0.00 91 1034.9
20260901091232 58 110 0.0 0.0 0.00 0.08 0.00 90 1034.9
20260901090732 59 139 0.0 8.0 0.00 0.08 0.00 89 1035.0
20260901090232 59 198 0.0 0.0 0.00 0.08 0.00 87 1035.0
20260901085732 60 146 0.0 0.0 0.00 0.08 0.00 85 1034.9
20260901085232 59 148 0.0 0.0 0.00 0.08 0.00 83 1034.8
20260901084735 59 253 0.0 0.0 0.00 0.08 0.00 84 1034.7
20260901084232 59 253 0.0 0.0 0.00 0.08 0.00 85 1034.6
20260901083735 59 253 0.0 0.0 0.00 0.08 0.00 86 1034.6
20260901083235 59 253 0.0 0.0 0.00 0.08 0.00 86 1034.6
20260901082732 59 253 0.0 0.0 0.00 0.08 0.00 85 1034.6
20260901082232 59 253 0.0 0.0 0.00 0.08 0.00 85 1034.7
20260901081732 59 253 0.0 0.0 0.00 0.08 0.00 85 1034.9
20260901081236 59 253 0.0 0.0 0.00 0.08 0.00 86 1035.0
20260901080732 59 252 0.0 0.0 0.00 0.08 0.00 87 1035.1
20260901080235 58 253 0.0 0.0 0.00 0.08 0.00 89 1035.3
20260901075735 58 253 0.0 0.0 0.00 0.08 0.00 89 1035.3
20260901075235 58 253 0.0 0.0 0.00 0.08 0.00 89 1035.4
20260901074735 58 253 0.0 0.0 0.00 0.08 0.00 89 1035.5
20260901074235 59 253 0.0 0.0 0.00 0.08 0.00 89 1035.5
20260901073732 59 253 0.0 0.0 0.00 0.08 0.00 89 1035.7
20260901073232 59 253 0.0 0.0 0.00 0.08 0.00 89 1035.8
20260901072732 59 252 0.0 0.0 0.00 0.08 0.00 89 1035.9
20260901072232 59 253 0.0 0.0 0.00 0.08 0.00 89 1035.9
20260901071735 59 253 0.0 0.0 0.00 0.08 0.00 89 1036.0
20260901071232 58 253 0.0 0.0 0.00 0.08 0.00 88 1036.1
20260901070735 59 253 0.0 0.0 0.00 0.08 0.00 87 1036.0
20260901070235 59 253 0.0 0.0 0.00 0.08 0.00 87 1036.2
20260901065732 59 253 0.0 0.0 0.00 0.08 0.00 87 1036.3
20260901065235 59 253 0.0 0.0 0.00 0.08 0.00 85 1036.3
20260901064735 59 253 0.0 0.0 0.00 0.08 0.00 84 1036.3
20260901064235 60 253 0.0 0.0 0.00 0.08 0.00 83 1036.3
20260901063735 60 253 0.0 0.0 0.00 0.08 0.00 82 1036.3
20260901063235 60 252 0.0 0.0 0.00 0.08 0.00 80 1036.5
20260901062735 60 252 0.0 0.0 0.00 0.08 0.00 80 1036.4
20260901062235 60 253 0.0 0.0 0.00 0.08 0.00 80 1036.4
20260901061735 60 252 0.0 0.0 0.00 0.08 0.00 80 1036.4
20260901061235 60 252 0.0 0.0 0.00 0.08 0.00 80 1036.6
20260901060735 60 252 0.0 0.0 0.00 0.08 0.00 80 1036.6
20260901060232 59 253 0.0 0.0 0.00 0.08 0.00 84 1036.8
20260901055732 59 253 0.0 0.0 0.00 0.08 0.00 85 1036.9
20260901055235 59 252 0.0 0.0 0.00 0.08 0.00 86 1037.1
20260901054735 59 253 0.0 0.0 0.00 0.08 0.00 87 1037.0
20260901054235 60 252 0.0 0.0 0.00 0.08 0.00 86 1037.1
20260901053732 60 253 0.0 0.0 0.00 0.08 0.00 85 1037.1
20260901053232 60 253 0.0 0.0 0.00 0.08 0.00 87 1037.2
20260901052735 59 253 0.0 0.0 0.00 0.08 0.00 89 1037.5
20260901052232 59 253 0.0 0.0 0.00 0.08 0.00 90 1037.4
20260901051735 59 253 0.0 0.0 0.00 0.08 0.00 89 1037.3
20260901051232 59 253 0.0 0.0 0.00 0.08 0.00 89 1037.4
20260901050735 60 252 0.0 0.0 0.00 0.08 0.00 88 1037.6
20260901050235 60 253 0.0 0.0 0.00 0.08 0.00 88 1038.0
20260901045732 60 253 0.0 0.0 0.01 0.08 0.00 88 1038.2
20260901045235 60 252 0.0 0.0 0.01 0.08 0.00 88 1038.2
20260901044732 60 253 0.0 0.0 0.01 0.08 0.00 87 1038.1
20260901044235 60 253 0.0 0.0 0.01 0.08 0.00 87 1038.2
20260901043735 60 253 0.0 0.0 0.01 0.08 0.00 88 1038.2
20260901043235 60 258 0.0 0.0 0.01 0.08 0.00 88 1038.2
20260901042732 60 258 0.0 0.0 0.01 0.08 0.00 89 1038.2
20260901042235 60 255 0.0 0.0 0.01 0.08 0.00 90 1038.4
20260901041732 60 264 0.0 0.0 0.01 0.08 0.00 91 1038.5
20260901041232 60 229 0.0 0.0 0.01 0.08 0.00 91 1038.5
20260901040735 60 228 0.0 0.0 0.01 0.08 0.00 91 1038.6
20260901040235 60 227 0.0 0.0 0.01 0.08 0.00 90 1038.7
20260901035735 60 156 0.0 0.0 0.00 0.07 0.00 89 1038.6
20260901035235 60 156 0.0 0.0 0.00 0.07 0.00 89 1038.7
20260901034732 60 156 0.0 0.0 0.00 0.07 0.00 89 1038.8
20260901034235 60 162 0.0 0.0 0.00 0.07 0.00 89 1038.8
20260901033735 60 142 0.0 0.0 0.00 0.07 0.00 89 1038.7
20260901033235 60 148 0.0 0.0 0.00 0.07 0.00 89 1038.5
20260901032735 60 159 0.0 0.0 0.00 0.07 0.00 89 1038.5
20260901032232 60 174 0.0 0.0 0.00 0.07 0.00 88 1038.3
20260901031732 60 322 0.0 0.0 0.00 0.07 0.00 87 1038.1
20260901031232 60 321 0.0 0.0 0.00 0.07 0.00 86 1037.9
20260901030735 60 322 0.0 0.0 0.00 0.07 0.00 88 1037.8
20260901030235 60 27 0.0 0.0 0.00 0.07 0.00 88 1037.7
20260901025732 60 27 0.0 0.0 0.00 0.07 0.00 88 1037.7
20260901025232 60 27 0.0 0.0 0.00 0.07 0.00 87 1037.7
20260901024732 60 70 0.0 0.0 0.00 0.07 0.00 87 1037.6
20260901024235 60 70 0.0 0.0 0.00 0.07 0.00 87 1037.6
20260901023735 60 70 0.0 0.0 0.00 0.07 0.00 88 1037.6
20260901023232 59 1 0.0 0.0 0.00 0.07 0.00 87 1037.7
20260901022732 60 1 0.0 0.0 0.00 0.07 0.00 88 1037.7
20260901022235 60 1 0.0 0.0 0.00 0.07 0.00 87 1037.8
20260901021732 60 1 0.0 0.0 0.00 0.07 0.00 88 1037.8
20260901021235 60 1 0.0 0.0 0.01 0.07 0.00 87 1037.8
20260901020735 60 1 0.0 0.0 0.01 0.07 0.00 87 1037.8
20260901020235 60 238 0.0 0.0 0.01 0.07 0.00 87 1037.9
20260901015732 60 238 0.0 0.0 0.01 0.07 0.00 89 1038.0
20260901015235 60 238 0.0 0.0 0.01 0.07 0.00 89 1038.2
20260901014735 60 277 0.0 0.0 0.01 0.07 0.00 88 1038.1
20260901014235 60 319 0.0 0.0 0.01 0.07 0.00 87 1038.1
20260901013735 60 39 0.0 0.0 0.01 0.07 0.00 87 1038.1
20260901013232 60 73 0.0 0.0 0.01 0.07 0.00 86 1038.1
20260901012735 61 74 0.0 6.0 0.01 0.07 0.00 85 1038.0
20260901012235 61 79 3.0 6.0 0.01 0.07 0.00 83 1038.0
20260901011735 63 158 0.0 8.0 0.01 0.07 0.00 81 1037.8
20260901011235 64 101 5.0 9.0 0.00 0.06 0.00 76 1037.8
20260901010735 65 74 7.0 11.0 0.00 0.06 0.00 71 1037.8
20260901010232 65 83 0.0 10.0 0.00 0.06 0.00 70 1037.9
20260901005735 66 77 7.0 8.0 0.00 0.06 0.00 69 1037.6
20260901005235 66 98 0.0 0.0 0.00 0.06 0.00 71 1037.4
20260901004735 66 94 0.0 0.0 0.00 0.06 0.00 70 1037.3
20260901004235 66 95 0.0 0.0 0.00 0.06 0.00 72 1037.3
20260901003735 66 32 0.0 0.0 0.00 0.06 0.00 73 1037.3
20260901003235 66 33 0.0 0.0 0.00 0.06 0.00 74 1037.2
20260901002735 65 256 0.0 0.0 0.00 0.06 0.00 75 1037.2
20260901002235 65 256 0.0 0.0 0.05 0.06 0.00 74 1037.0
20260901001735 65 256 0.0 0.0 0.05 0.06 0.00 77 1037.0
20260901001232 65 256 0.0 0.0 0.05 0.06 0.00 75 1037.0
20260901000735 65 256 0.0 0.0 0.05 0.06 0.00 76 1036.9
20260901000235 65 271 0.0 0.0 0.05 0.06 0.00 76 1036.9
20260831235735 64 271 0.0 0.0 0.05 0.06 0.00 77 1036.7
20260831235232 64 310 0.0 0.0 0.05 0.06 0.00 81 1036.6
20260831234732 64 311 0.0 0.0 0.05 0.06 0.00 81 1036.4
20260831234232 65 325 0.0 0.0 0.05 0.06 0.00 73 1036.3
20260831233732 65 319 0.0 0.0 0.05 0.06 0.00 71 1036.2
20260831233235 67 321 0.0 0.0 0.05 0.06 0.00 67 1036.3
20260831232735 70 25 0.0 1.0 0.05 0.06 0.00 66 1035.9
20260831232232 72 70 0.0 6.0 0.00 0.01 0.00 57 1035.6
20260831231732 72 56 0.0 2.0 0.00 0.01 0.00 53 1035.2
20260831231232 73 92 0.0 0.0 0.00 0.01 0.00 52 1035.0
20260831230732 74 327 0.0 10.0 0.00 0.01 0.00 50 1035.1
20260831230235 74 359 0.0 0.0 0.00 0.01 0.00 49 1035.2
20260831225732 74 359 0.0 4.0 0.00 0.01 0.00 48 1035.1
20260831225232 75 35 2.0 10.0 0.00 0.01 0.00 47 1034.9
20260831224735 75 94 0.0 18.0 0.00 0.01 0.00 46 1035.0
20260831224235 76 73 6.0 8.0 0.00 0.01 0.00 45 1034.9
20260831223732 76 46 0.0 12.0 0.00 0.01 0.00 44 1034.9
20260831223232 77 35 0.0 11.0 0.00 0.01 0.00 43 1034.8
20260831222732 77 18 0.0 9.0 0.00 0.01 0.00 44 1034.9
20260831222235 77 20 0.0 7.0 0.00 0.01 0.00 44 1035.0
20260831221735 77 3 4.0 13.0 0.00 0.01 0.00 43 1034.8
20260831221232 79 39 5.0 8.0 0.00 0.01 0.00 41 1034.9
20260831220732 79 139 0.0 4.0 0.00 0.01 0.00 38 1034.8
20260831220232 79 79 0.0 1.0 0.00 0.01 0.00 40 1034.7
20260831215732 79 3 0.0 11.0 0.00 0.01 0.00 39 1034.6
20260831215232 79 27 0.0 7.0 0.00 0.01 0.00 40 1034.7
20260831214735 80 82 0.0 1.0 0.00 0.01 0.00 38 1034.7
20260831214232 80 82 0.0 1.0 0.00 0.01 0.00 35 1034.7
20260831213735 80 145 1.0 8.0 0.00 0.01 0.00 36 1034.7
20260831213232 80 142 0.0 4.0 0.00 0.01 0.00 36 1034.7
20260831212732 80 179 0.0 9.0 0.00 0.01 0.00 34 1034.7
20260831212232 80 158 0.0 12.0 0.00 0.01 0.00 34 1034.7
20260831211732 81 169 5.0 8.0 0.00 0.01 0.00 33 1034.7
20260831211232 82 238 4.0 3.0 0.00 0.01 0.00 33 1034.7
20260831210735 83 222 0.0 0.0 0.00 0.01 0.00 32 1034.7
20260831210232 83 210 0.0 0.0 0.00 0.01 0.00 34 1034.8
20260831205735 82 169 0.0 12.0 0.00 0.01 0.00 34 1034.8
20260831205232 81 262 0.0 0.0 0.00 0.01 0.00 37 1034.8
20260831204735 81 212 0.0 9.0 0.00 0.01 0.00 39 1034.7
20260831204232 82 328 0.0 12.0 0.00 0.01 0.00 37 1034.6
20260831203735 81 221 0.0 0.0 0.00 0.01 0.00 35 1034.7
20260831203235 80 218 0.0 0.0 0.00 0.01 0.00 36 1034.7
20260831202735 80 160 0.0 7.0 0.00 0.01 0.00 37 1034.8
20260831202232 80 250 6.0 9.0 0.00 0.01 0.00 38 1034.8
20260831201732 80 173 0.0 0.0 0.00 0.01 0.00 38 1034.7
20260831201235 81 240 0.0 3.0 0.00 0.01 0.00 35 1034.7
20260831200732 82 229 0.0 6.0 0.00 0.01 0.00 35 1034.6
20260831200235 82 148 0.0 8.0 0.00 0.01 0.00 33 1034.6
20260831195732 82 256 0.0 4.0 0.00 0.01 0.00 31 1034.6
20260831195232 82 141 3.0 4.0 0.00 0.01 0.00 32 1034.8
20260831194732 80 153 0.0 0.0 0.00 0.01 0.00 34 1034.9
20260831194235 79 188 0.0 10.0 0.00 0.01 0.00 35 1034.9
20260831193732 80 160 0.0 0.0 0.00 0.01 0.00 34 1034.9
20260831193232 80 162 0.0 0.0 0.00 0.01 0.00 33 1034.9
20260831192732 80 237 0.0 0.0 0.00 0.01 0.00 34 1034.9
20260831192235 80 252 0.0 0.0 0.00 0.01 0.00 34 1034.9
20260831191735 80 239 0.0 0.0 0.00 0.01 0.00 35 1034.9
20260831191232 80 210 0.0 0.0 0.00 0.01 0.00 34 1034.9
20260831190732 81 117 0.0 0.0 0.00 0.01 0.00 32 1034.9
20260831190235 81 152 0.0 0.0 0.00 0.01 0.00 33 1034.9
20260831185731 81 98 0.0 5.0 0.00 0.01 0.00 34 1035.0
20260831185235 80 89 0.0 0.0 0.00 0.01 0.00 33 1035.0
20260831184732 81 52 0.0 0.0 0.00 0.01 0.00 33 1035.1
20260831184235 79 160 0.0 0.0 0.00 0.01 0.00 34 1035.2
20260831183732 78 149 0.0 0.0 0.00 0.01 0.00 35 1035.2
20260831183235 78 105 0.0 0.0 0.00 0.01 0.00 35 1035.1
20260831182735 79 142 0.0 0.0 0.00 0.01 0.00 35 1035.2
20260831182234 78 158 0.0 0.0 0.00 0.01 0.00 36 1035.2
20260831181735 77 173 0.0 0.0 0.00 0.01 0.00 36 1035.3
20260831181232 76 133 0.0 0.0 0.00 0.01 0.00 39 1035.3
20260831180732 77 47 0.0 8.0 0.00 0.01 0.00 37 1035.3
20260831180234 77 0 0.0 10.0 0.00 0.01 0.00 37 1035.2
20260831175734 78 343 0.0 8.0 0.00 0.01 0.00 37 1035.1
20260831175231 78 70 0.0 8.0 0.00 0.01 0.00 39 1035.2
20260831174735 77 81 0.0 7.0 0.00 0.01 0.00 39 1035.2
20260831174235 76 9 0.0 1.0 0.00 0.01 0.00 40 1035.1
20260831173735 76 321 0.0 4.0 0.00 0.01 0.00 41 1035.2
20260831173234 75 13 0.0 0.0 0.00 0.01 0.00 42 1035.2
20260831172734 74 318 0.0 3.0 0.00 0.01 0.00 43 1035.3
20260831172231 74 22 0.0 1.0 0.00 0.01 0.00 44 1035.4
20260831171734 73 101 0.0 6.0 0.00 0.01 0.00 44 1035.4
20260831171231 73 9 6.0 12.0 0.00 0.01 0.00 47 1035.5
20260831170735 72 96 0.0 3.0 0.00 0.01 0.00 47 1035.5
20260831170234 71 82 0.0 8.0 0.00 0.01 0.00 48 1035.5
20260831165732 71 48 1.0 0.0 0.00 0.01 0.00 48 1035.6
20260831165235 71 296 0.0 0.0 0.00 0.01 0.00 50 1035.6
20260831164732 70 18 0.0 7.0 0.00 0.01 0.00 50 1035.6
20260831164231 70 359 0.0 9.0 0.00 0.01 0.00 50 1035.6
20260831163734 71 94 0.0 0.0 0.00 0.01 0.00 50 1035.6
20260831163231 70 101 0.0 7.0 0.00 0.01 0.00 51 1035.6
20260831162731 70 77 0.0 7.0 0.00 0.01 0.00 51 1035.7
20260831162234 69 53 0.0 0.0 0.00 0.01 0.00 52 1035.6
20260831161731 69 23 0.0 0.0 0.00 0.01 0.00 53 1035.7
20260831161234 68 89 0.0 9.0 0.00 0.01 0.00 54 1035.8
20260831160731 68 22 4.0 9.0 0.00 0.01 0.00 55 1035.8
20260831160231 67 13 9.0 12.0 0.00 0.01 0.00 56 1035.8
20260831155734 66 79 6.0 12.0 0.00 0.01 0.00 59 1035.9
20260831155231 66 82 3.0 6.0 0.00 0.01 0.00 61 1035.9
20260831154734 66 26 0.0 11.0 0.00 0.01 0.00 61 1036.0
20260831154231 65 340 0.0 6.0 0.00 0.01 0.00 65 1036.1
20260831153735 64 36 6.0 9.0 0.00 0.01 0.00 65 1036.1
20260831153231 64 9 5.0 8.0 0.00 0.01 0.00 66 1036.0
20260831152734 63 18 0.0 10.0 0.00 0.01 0.00 66 1036.0
20260831152232 64 96 8.0 10.0 0.00 0.01 0.00 66 1036.1
20260831151734 64 55 0.0 7.0 0.00 0.01 0.00 65 1036.0
20260831151234 63 77 0.0 10.0 0.00 0.01 0.00 66 1036.2
20260831150731 64 77 6.0 9.0 0.00 0.01 0.00 65 1036.2
20260831150231 64 55 2.0 2.0 0.00 0.01 0.00 65 1036.3
20260831145734 64 210 0.0 6.0 0.00 0.01 0.00 65 1036.3
20260831145234 64 115 0.0 4.0 0.00 0.01 0.00 66 1036.4
20260831144734 64 41 0.0 8.0 0.00 0.01 0.00 67 1036.4
20260831144234 63 68 0.0 0.0 0.00 0.01 0.00 68 1036.5
20260831143731 62 21 0.0 8.0 0.00 0.01 0.00 69 1036.5
20260831143231 62 30 0.0 0.0 0.00 0.01 0.00 71 1036.7
20260831142731 62 18 0.0 6.0 0.00 0.01 0.00 70 1036.7
20260831142232 62 99 0.0 0.0 0.00 0.01 0.00 69 1036.7
20260831141734 63 65 0.0 0.0 0.00 0.01 0.00 68 1036.7
20260831141234 63 91 0.0 0.0 0.00 0.01 0.00 67 1036.7
20260831140732 64 23 0.0 0.0 0.00 0.01 0.00 64 1036.8
20260831140231 64 76 0.0 0.0 0.00 0.01 0.00 65 1036.9
20260831135734 64 41 0.0 0.0 0.00 0.01 0.00 65 1036.9
20260831135234 64 79 0.0 0.0 0.00 0.01 0.00 64 1036.8
20260831134731 63 94 0.0 0.0 0.00 0.01 0.00 65 1037.0
20260831134235 63 104 0.0 0.0 0.00 0.01 0.00 66 1037.0
20260831133732 63 66 0.0 0.0 0.00 0.01 0.00 65 1037.1